Location: ????????
(38.3085°N, 23.4432°E)
Time: 09:17:58
(UTC+00:00)

Daily predictions for brighter satellites

Satellite Brightness Start Highest point End
(mag) Time Altitude Azimuth Time Altitude Azimuth Time Altitude Azimuth
Cosmos 1300 Rocket 4.0 15:35:14 10° SSW 15:39:36 67° W 15:43:58 10° N
Cosmos 1869 3.5 15:36:53 10° SSE 15:40:11 39° E 15:43:29 10° NNE
ISS -2.6 15:37:10 10° WSW 15:40:17 36° NNW 15:43:25 10° NE
CZ-2D R/B 3.5 15:38:01 10° SE 15:40:50 31° ENE 15:43:41 10° N
SJ-12 4.2 15:41:47 10° SE 15:45:19 39° ENE 15:48:52 10° N
IGS 5A 3.5 15:41:35 10° S 15:45:33 78° W 15:49:33 10° NNW
COSMO-SKYMED 1 4.0 15:46:40 10° NE 15:49:20 17° E 15:51:59 10° SE
SL-4 R/B 4.2 15:47:18 10° WNW 15:50:09 24° SW 15:53:06 10° S
Cosmos 540 Rocket 4.0 15:47:25 10° N 15:52:06 34° ENE 15:56:43 10° SE
Cosmos 1400 Rocket 4.2 15:51:02 10° SE 15:53:38 18° E 15:56:14 10° NE
CORIOLIS 4.1 15:49:53 10° SSE 15:55:15 86° ENE 16:00:37 10° NNW
Cosmos 1763 Rocket 3.7 15:52:25 10° N 15:57:26 46° ENE 16:02:20 10° SE
Cosmos 1975 Rocket 3.0 15:54:08 10° N 15:58:30 79° E 16:02:53 10° S
IRS-1C 4.1 15:55:18 10° SSE 16:00:35 73° ENE 16:05:55 10° N
Cosmos 2151 Rocket 4.4 15:57:37 10° SSE 16:01:30 30° E 16:05:24 10° NNE
SMAP 3.1 15:57:07 10° SSE 16:01:46 86° WSW 16:06:28 10° NNW
Cosmos 1812 2.3 15:59:08 10° SSE 16:01:54 43° E 16:04:40 10° NNE
OAO 2 Rocket 3.7 15:57:11 10° W 16:02:07 60° S 16:06:56 11° ESE
Cosmos 44 Rocket 3.2 15:58:00 10° SSW 16:02:43 90° WNW 16:07:38 10° NNE
Cosmos 1943 Rocket 2.2 15:58:58 10° SSW 16:04:35 87° WNW 16:10:13 10° NNE
OAO 3 Rocket 3.6 16:00:16 10° WSW 16:04:51 55° S 16:08:48 13° E
Cosmos 2058 3.5 16:06:28 10° NNE 16:10:03 31° ENE 16:13:37 10° SE
Okean 1 Rocket 4.1 16:08:09 10° SE 16:11:40 24° E 16:14:36 13° NE
Aureole 3 Rocket 2.0 16:09:09 10° S 16:12:13 68° E 16:15:16 10° NNE
Cosmos 2278 Rocket 2.3 16:07:23 10° SSW 16:13:02 79° WNW 16:18:43 10° NNE
CZ-2D R/B 4.1 16:09:44 10° SE 16:13:23 31° ENE 16:17:06 10° N
Cosmos 2082 Rocket 2.8 16:08:55 10° N 16:13:56 32° ENE 16:18:55 10° ESE
Landsat 7 3.8 16:09:36 10° SSE 16:14:15 89° WSW 16:18:56 10° NNW
SKYMED 2 3.7 16:11:03 10° NNE 16:15:17 50° E 16:19:29 10° S
Helios 1A Rocket 3.0 16:18:18 18° NE 16:20:18 35° E 16:23:25 10° SSE
Cosmos 1513 Rocket 4.5 16:14:07 10° S 16:20:26 80° E 16:26:51 10° N
Cosmos 2369 Rocket 3.9 16:20:57 10° SE 16:22:29 13° ESE 16:22:29 13° ESE
Cosmos 2251 Rocket 3.5 16:20:05 10° SSW 16:25:20 87° ESE 16:30:40 10° NNE
SL-19 R/B 4.5 16:25:12 10° SE 16:30:01 39° ENE 16:34:50 10° N
Cosmos 371 Rocket 3.4 16:26:23 10° S 16:30:58 49° ESE 16:34:20 18° NE
H-2A R/B 3.5 16:28:13 10° WSW 16:31:36 16° SSW 16:33:30 10° S
YAOGAN 1 2.9 16:27:57 10° SE 16:31:52 38° ENE 16:35:49 10° N
Cosmos 304 Rocket 3.8 16:27:40 10° S 16:32:15 53° ESE 16:35:37 18° NNE
SJ 16-02 1.2 16:31:19 10° S 16:35:36 74° ESE 16:39:07 15° NNE
Cosmos 841 Rocket 4.3 16:32:30 10° N 16:36:58 27° ENE 16:37:10 27° ENE
ATLAS 2AS CENTAUR R/B 4.3 16:33:59 10° N 16:37:32 14° NNE 16:38:09 14° NE
Nadezhda 4 Rocket 4.0 16:32:18 10° N 16:38:28 56° E 16:44:31 10° SSE
BREEZE M DEB (TANK) 4.0 16:38:12 10° SSW 16:40:01 17° SSE 16:40:01 17° SSE
ARIANE 5 R/B 3.8 16:38:29 10° S 16:43:09 41° W 16:47:52 10° NNW
Resurs 1-3 3.7 16:39:30 10° SSE 16:43:38 49° ENE 16:47:47 10° N
Cosmos 1656 Rocket 3.9 16:39:31 10° S 16:44:45 46° ESE 16:47:09 29° NE
COSMOS 2406 3.8 16:41:26 10° N 16:46:31 33° ENE 16:47:01 32° ENE
USA 215 3.4 16:42:54 10° SE 16:49:26 77° SW 16:56:00 10° NW
Cosmos 468 Rocket 3.8 16:45:28 10° NNW 16:50:40 76° ENE 16:55:47 10° SSE
Cosmos 1862 2.9 16:47:15 10° N 16:50:52 74° E 16:54:29 10° SSE
Iridium 45 4.5 16:49:21 10° S 16:52:31 60° SE 16:52:31 60° SE
MOS 1 Rocket 4.0 16:52:02 10° S 16:56:10 50° W 17:00:29 10° NNW
Okean 2 Rocket 3.0 16:51:51 10° S 16:56:15 83° W 17:00:34 10° N
Cosmos 1428 Rocket 4.4 16:51:57 10° N 16:58:13 67° E 17:04:27 10° SSE
Cosmos 676 Rocket 3.9 16:54:02 10° SSW 16:59:21 89° ESE 17:03:00 21° NNE
Cosmos 489 Rocket 4.4 16:53:57 10° NNW 17:00:09 61° ENE 17:06:15 10° SSE
Cosmos 1536 Rocket 3.5 16:55:54 10° N 17:00:21 87° W 17:04:43 10° S
H-II Stage 2 3.8 16:47:44 10° WSW 17:00:33 35° SSW 17:02:47 23° SSE
ATLAS 5 CENTAUR R/B 4.2 17:01:17 10° WNW 17:05:24 26° WSW 17:10:10 10° S
Meteor 2-3 Rocket 3.8 17:00:53 10° N 17:06:26 51° ENE 17:07:28 45° ESE
USA 281 4.2 17:15:07 28° NNE 17:15:07 28° NNE 17:19:07 10° N
RESURS DK-1 4.0 17:10:01 10° NW 17:13:36 32° WSW 17:17:09 10° S
SPOT 1/Viking Rocket 4.3 17:10:01 10° S 17:15:02 54° W 17:20:07 10° NNW
BlueWalker 3 2.7 17:12:01 10° SW 17:14:33 43° SW 17:14:33 43° SW
ISS -0.8 17:16:52 10° NNW 17:17:12 11° NNW 17:17:12 11° NNW
Cosmos 968 Rocket 3.6 17:16:23 10° S 17:20:39 57° SSE 17:20:39 57° SSE
Cosmos 1634 Rocket 3.9 17:16:15 10° S 17:22:24 61° E 17:22:50 59° ENE
COSMO-SKYMED 1 4.0 17:21:26 13° N 17:24:44 35° WNW 17:28:29 10° SW
DELTA 2 R/B (1) 3.5 17:22:11 10° WSW 17:27:39 67° SSE 17:27:39 67° SSE
BREEZE-M DEB (TANK) 4.5 17:29:52 10° NW 17:32:21 26° N 17:32:21 26° N
OAO 2 Rocket 4.4 17:41:38 10° W 17:45:42 40° SW 17:45:42 40° SW
OAO 3 Rocket 4.4 17:43:11 10° W 17:46:13 36° WSW 17:46:13 36° WSW
Cosmos 1092 Rocket 4.0 17:49:01 10° N 18:02:36 - S 17:54:59 73° WNW
Cosmos 2082 Rocket 3.7 17:52:58 10° NW 17:57:54 32° WSW 18:02:50 10° SSW
Cosmos 2026 Rocket 4.4 17:55:44 10° NNW 18:01:40 57° W 18:07:40 10° SSW
Cosmos 2369 Rocket 3.5 18:01:25 10° SSW 18:04:20 32° SW 18:04:20 32° SW
ATLAS 2AS CENTAUR R/B 4.3 18:23:17 10° NNW 18:25:35 22° NNW 18:25:35 22° NNW
Cosmos 2344 4.2 18:39:47 10° NW 18:47:32 70° W 18:47:32 70° W
